Weather in Vilga

Russia / Republic of Karelia     61°49′06″N   34°05′15″E
temp.,
°C
wind,
m/s
gust,
m/s
humid.,
%
clouds,
%
prec.,
mm/h
press.,
hPa
HPBL,
m
4 march, thu
thu400:00−4wnw4129248 0.2 995477
03:00−6nw4119373 0.3 997658
06:00−8nnw2797100 0.2 998208
09:00−10wnw249896 0.2 999109
12:00−5wnw369278 0.0 1000501
15:00−4nw368789 0.3 1000857
18:00−6nw2793100 0.4 1000242
21:00−9wnw269698 0.6 1001160
5 march, fri
fri500:00−11wnw239796 0.2 100290
03:00−11nne279698 0.6 1004287
06:00−15nnw129367 0.0 100520
09:00−14wnw129349 0.0 100770
12:00−10nw3691100 0.1 1009603
15:00−8nnw4780100 0.2 10111277
18:00−11nnw2292100 0.1 101249
21:00−14wnw119796 0.1 101420
6 march, sat
sat600:00−15w129889 0.1 101521
03:00−16wsw229555 0.1 101520
06:00−16wsw23970 0.0 101560
09:00−13wsw389511 0.0 1013237
12:00−8sw498930 0.0 1011445
15:00−6ssw6128449 0.0 1006840
18:00−6ssw71589100 0.2 10001153
21:00−5ssw71689100 0.8 9921029
7 march, sun
sun700:00−3ssw61294100 1.1 988874
03:00−8wnw51194100 3.1 987619
06:00−12w3986100 0.3 987234
09:00−14wsw238667 0.3 98887
12:00−8se018946 0.1 990351
15:00−8ne238773 0.7 991593
18:00−11n2492100 0.1 99292
21:00−11nnw31195100 0.2 994504
8 march, mon
mon800:00−12n51294100 0.8 996757
03:00−13n61293100 1.4 999883
06:00−16n51294100 0.5 1002596
09:00−18n51295100 0.9 1005519
12:00−16n51094100 0.1 1008532
15:00−14n51091100 0.3 1011629
18:00−16n41194100 0.1 1014536
21:00−20n3109797 0.1 1017328